This demonstration page uses our WeatherBlox Daily Observations layout. Learn more.

Hourly Observations for December 29, 2017

Temp ( °F °C ) Dew Point ( °F °C ) Humidity (%) Winds ( mph kmh ) Pressure ( in mb ) Visibility ( mi km ) Precip ( " mm )
12:15 am 00:15 Clear 16 -9.1 13 -10.4 90 90 SE 7 11 30.45 1031 10 16.09344 0 0
12:35 am 00:35 Clear 15 -9.7 12 -11 90 90 SSE 6 9 30.42 1030 10 16.09344 0 0
12:55 am 00:55 Clear 14 -9.9 12 -11.2 90 90 SSE 8 13 30.42 1030 10 16.09344 0 0
1:15 am 01:15 Clear 13 -10.5 11 -11.8 90 90 SSE 7 11 30.45 1031 10 16.09344 0 0
1:35 am 01:35 Clear 13 -10.7 10 -12.1 90 90 SSE 5 7 30.42 1030 10 16.09344 0 0
1:55 am 01:55 Clear 13 -10.8 10 -12 91 91 S 9 15 30.42 1030 10 16.09344 0 0
2:15 am 02:15 Clear 13 -10.8 10 -12 91 91 SSE 9 15 30.42 1030 10 16.09344 0 0
2:35 am 02:35 Clear 12 -11.2 9 -12.6 90 90 SSE 8 13 30.39 1029 10 16.09344 0 0
2:55 am 02:55 Clear 12 -11.2 9 -12.6 90 90 SE 6 9 30.42 1030 10 16.09344 0 0
3:15 am 03:15 Clear 12 -11.1 10 -12.3 91 91 SSE 7 11 30.42 1030 10 16.09344 0 0
3:35 am 03:35 Clear 11 -11.7 8 -13.1 89 89 SSE 3 6 30.42 1030 10 16.09344 0 0
3:55 am 03:55 Clear 9 -12.6 7 -14.1 89 89 Calm 30.42 1030 10 16.09344 0 0
4:15 am 04:15 Clear 10 -12 8 -13.1 92 92 SSE 3 6 30.39 1029 10 16.09344 0 0
4:35 am 04:35 Clear 10 -12.3 8 -13.1 94 94 SSE 6 9 30.36 1028 10 16.09344 0 0
4:55 am 04:55 Clear 8 -13.2 7 -14.1 93 93 SSE 6 9 30.36 1028 10 16.09344 0 0
5:15 am 05:15 Clear 9 -12.9 8 -13.6 95 95 SSE 7 11 30.33 1027 10 16.09344 0 0
5:35 am 05:35 Clear 9 -13 7 -13.8 94 94 SSE 8 13 30.33 1027 10 16.09344 0 0
5:55 am 05:55 Clear 10 -12.5 8 -13.5 92 92 SSE 9 15 30.3 1026 10 16.09344 0 0
6:15 am 06:15 Clear 9 -12.6 8 -13.6 92 92 SSE 8 13 30.3 1026 10 16.09344 0 0
6:35 am 06:35 Clear 9 -12.6 8 -13.6 92 92 SSE 5 7 30.3 1026 10 16.09344 0 0
6:55 am 06:55 Clear 9 -13 7 -14 92 92 SE 5 7 30.27 1025 10 16.09344 0 0
7:15 am 07:15 Clear 8 -13.2 7 -14.1 93 93 SE 6 9 30.27 1025 10 16.09344 0 0
7:35 am 07:35 Clear 8 -13.2 7 -14 94 94 SE 7 11 30.24 1024 10 16.09344 0 0
7:55 am 07:55 Clear 9 -13 7 -13.8 94 94 SE 8 13 30.24 1024 10 16.09344 0 0
8:15 am 08:15 Sunny 9 -13 7 -13.7 95 95 SE 6 9 30.24 1024 10 16.09344 0 0
8:35 am 08:35 Sunny 9 -12.6 8 -13.5 93 93 SE 5 7 30.24 1024 10 16.09344 0 0
8:55 am 08:55 Sunny 10 -12.5 8 -13.2 95 95 SE 3 6 30.24 1024 10 16.09344 0 0
9:15 am 09:15 Sunny 10 -12.4 8 -13.4 92 92 ESE 3 6 30.24 1024 10 16.09344 0 0
9:35 am 09:35 Sunny 10 -12 9 -13 92 92 Calm 30.21 1023 7 11.265408 0 0
9:55 am 09:55 Sunny 13 -10.6 12 -11.3 95 95 SSE 3 6 30.21 1023 10 16.09344 0 0
10:15 am 10:15 Partly Cloudy 14 -10.2 12 -11 94 94 Calm 30.21 1023 7 11.265408 0 0
10:35 am 10:35 Partly Cloudy 15 -9.6 13 -10.5 93 93 SE 3 6 30.21 1023 7 11.265408 0 0
10:55 am 10:55 Sunny 15 -9.6 13 -10.6 93 93 Calm 30.21 1023 7 11.265408 0 0
11:15 am 11:15 Sunny 16 -8.9 14 -10 92 92 Calm 30.18 1022 7 11.265408 0 0
11:35 am 11:35 Sunny 17 -8.5 14 -10 89 89 N 3 6 30.21 1023 10 16.09344 0 0
11:55 am 11:55 Sunny 17 -8.2 14 -9.8 88 88 N 5 7 30.21 1023 10 16.09344 0 0
12:15 pm 12:15 Partly Cloudy 17 -8.5 14 -10.2 88 88 N 7 11 30.21 1023 10 16.09344 0 0
12:35 pm 12:35 Mostly Cloudy 17 -8.1 14 -9.9 87 87 N 9 15 30.21 1023 10 16.09344 0 0
12:55 pm 12:55 Mostly Cloudy 17 -8.4 14 -10.1 88 88 N 8 13 30.24 1024 10 16.09344 0 0
1:15 pm 13:15 Mostly Cloudy 18 -8 15 -9.7 88 88 N 9 15 30.24 1024 7 11.265408 0 0
1:35 pm 13:35 Cloudy 17 -8.3 14 -9.8 89 89 N 15 24 30.24 1024 7 11.265408 0 0
1:55 pm 13:55 Cloudy 17 -8.5 15 -9.7 91 91 N 18 30 30.24 1024 7 11.265408 0 0
2:15 pm 14:15 Cloudy with Mist and Fog 16 -9 14 -10.1 92 92 N 15 24 30.3 1026 5 8.04672 0 0
2:35 pm 14:35 Cloudy with Mist and Fog 17 -8.6 14 -9.8 91 91 N 20 31 30.3 1026 5 8.04672 0 0
2:55 pm 14:55 Cloudy with Mist and Fog 17 -8.2 15 -9.5 90 90 N 22 35 30.3 1026 5 8.04672 0 0
3:15 pm 15:15 Windy with Snow Likely 17 -8.1 15 -9.5 90 90 N 23 37 30.3 1026 4 6.437376 0 0
3:35 pm 15:35 Cloudy with Mist and Fog 17 -8.2 14 -9.8 88 88 N 21 33 30.3 1026 5 8.04672 0 0
3:55 pm 15:55 Cloudy with Mist and Fog 17 -8.3 14 -9.8 89 89 N 22 35 30.33 1027 5 8.04672 0 0
4:15 pm 16:15 Cloudy 17 -8.2 15 -9.7 89 89 N 21 33 30.3 1026 7 11.265408 0 0
4:35 pm 16:35 Cloudy with Mist and Fog 17 -8.2 14 -10 87 87 N 20 31 30.39 1029 5 8.04672 0 0
4:55 pm 16:55 Cloudy with Mist and Fog 17 -8.3 14 -10 88 88 N 20 31 30.39 1029 5 8.04672 0 0
5:15 pm 17:15 Cloudy 17 -8.5 13 -10.5 86 86 N 18 30 30.42 1030 7 11.265408 0 0
5:35 pm 17:35 Windy with Snow Likely 16 -8.7 13 -10.7 86 86 N 20 31 30.42 1030 7 11.265408 0 0
5:55 pm 17:55 Cloudy with Light Snow 16 -8.8 12 -11 84 84 N 18 30 30.42 1030 7 11.265408 0 0
6:15 pm 18:15 Cloudy with Light Snow 16 -9 12 -11 86 86 N 17 28 30.45 1031 4 6.437376 0 0
6:35 pm 18:35 Cloudy 15 -9.3 11 -11.6 84 84 N 22 35 30.45 1031 10 16.09344 0 0
6:55 pm 18:55 Windy with Snow Likely 15 -9.6 10 -12 83 83 N 24 39 30.48 1032 7 11.265408 0 0
7:15 pm 19:15 Cloudy 14 -10.1 9 -12.6 82 82 N 18 30 30.5 1033 10 16.09344 0 0
7:35 pm 19:35 Cloudy 13 -10.6 8 -13.2 81 81 N 22 35 30.5 1033 10 16.09344 0 0
7:55 pm 19:55 Cloudy 12 -11 8 -13.2 84 84 N 16 26 30.53 1034 10 16.09344 0 0
8:15 pm 20:15 Cloudy 12 -11.3 8 -13.5 84 84 N 16 26 30.53 1034 10 16.09344 0 0
8:35 pm 20:35 Cloudy 11 -11.7 7 -14 83 83 N 21 33 30.56 1035 7 11.265408 0 0
8:55 pm 20:55 Cloudy 10 -12.2 6 -14.7 82 82 N 17 28 30.59 1036 10 16.09344 0 0
9:15 pm 21:15 Mostly Cloudy 9 -12.6 5 -15 82 82 N 15 24 30.59 1036 10 16.09344 0 0
9:35 pm 21:35 Cloudy 8 -13.3 4 -15.8 82 82 N 16 26 30.59 1036 10 16.09344 0 0
9:55 pm 21:55 Partly Cloudy 7 -13.7 3 -16.2 82 82 N 12 19 30.62 1037 10 16.09344 0 0
10:15 pm 22:15 Clear 7 -14.1 2 -16.5 82 82 N 13 20 30.59 1036 10 16.09344 0 0
10:35 pm 22:35 Clear 6 -14.5 2 -16.7 84 84 N 12 19 30.59 1036 10 16.09344 0 0
10:55 pm 22:55 Clear 6 -14.7 1 -17 83 83 N 12 19 30.59 1036 10 16.09344 0 0
11:15 pm 23:15 Clear 5 -14.8 1 -17.1 83 83 N 9 15 30.65 1038 10 16.09344 0 0
11:35 pm 23:35 Clear 5 -15 1 -17.4 82 82 NNW 5 7 30.68 1039 10 16.09344 0 0
11:55 pm 23:55 Clear 5 -15.2 1 -17.5 83 83 N 9 15 30.68 1039 10 16.09344 0 0

Powered by AerisWeather